Buckhead, Georgia, United States (30625)
Lat: 33.57N, Lon: 83.36W
Wx Zone: GAZ049
Local Info
Past Weather Observations for Today

NOTE: This archive is for the closest National Weather Service station to Buckhead. Information may differ from the station used for current weather conditions.

Click here for Long-term Archive

Time Weather Temperature Dewpoint Humidity Pressure Winds Precip Visibility
10:55
Clear
54°F / 12°C 36°F / 2°C 51% 30.15 in
(1021 mb)
E 5.8 mph
(E 9 kph)
- 10SM
10:35
Clear
54°F / 12°C 36°F / 2°C 51% 30.15 in
(1021 mb)
Calm - 10SM
10:15
Clear
50°F / 10°C 37°F / 3°C 62% 30.15 in
(1021 mb)
Calm - 10SM
09:55
Clear
46°F / 8°C 39°F / 4°C 76% 30.15 in
(1021 mb)
N 3.5 mph
(N 6 kph)
- 10SM
09:35
Clear
45°F / 7°C 37°F / 3°C 76% 30.15 in
(1021 mb)
NNW 3.5 mph
(NNW 6 kph)
- 10SM
09:15
Clear
45°F / 7°C 37°F / 3°C 76% 30.15 in
(1021 mb)
NNW 3.5 mph
(NNW 6 kph)
- 10SM
08:55
Clear
43°F / 6°C 37°F / 3°C 81% 30.15 in
(1021 mb)
N 3.5 mph
(N 6 kph)
- 10SM
08:35
Clear
39°F / 4°C 37°F / 3°C 93% 30.15 in
(1021 mb)
Calm - 10SM
08:15
Clear
37°F / 3°C 36°F / 2°C 93% 30.12 in
(1020 mb)
NNW 3.5 mph
(NNW 6 kph)
- 10SM
07:55
Clear
36°F / 2°C 36°F / 2°C 100% 30.12 in
(1020 mb)
Calm - 10SM
07:35
Clear
36°F / 2°C 36°F / 2°C 100% 30.12 in
(1020 mb)
NW 3.5 mph
(NW 6 kph)
- 10SM
07:15
Clear
37°F / 3°C 36°F / 2°C 93% 30.12 in
(1020 mb)
Calm - 10SM
06:55
Clear
37°F / 3°C 36°F / 2°C 93% 30.09 in
(1019 mb)
Calm - 10SM
06:35
Clear
37°F / 3°C 37°F / 3°C 100% 30.09 in
(1019 mb)
Calm - 10SM
06:15
Clear
37°F / 3°C 36°F / 2°C 93% 30.09 in
(1019 mb)
Calm - 10SM
05:55
Clear
37°F / 3°C 37°F / 3°C 100% 30.06 in
(1018 mb)
Calm - 10SM
05:35
Clear
37°F / 3°C 37°F / 3°C 100% 30.06 in
(1018 mb)
Calm - 10SM
05:15
Clear
37°F / 3°C 37°F / 3°C 100% 30.06 in
(1018 mb)
Calm - 10SM
04:55
Clear
37°F / 3°C 37°F / 3°C 100% 30.06 in
(1018 mb)
Calm - 10SM
04:35
Clear
37°F / 3°C 37°F / 3°C 100% 30.06 in
(1018 mb)
Calm - 10SM
04:15
Clear
37°F / 3°C 37°F / 3°C 100% 30.06 in
(1018 mb)
Calm - 10SM
03:55
Clear
39°F / 4°C 37°F / 3°C 93% 30.06 in
(1018 mb)
Calm - 10SM
03:35
Clear
39°F / 4°C 37°F / 3°C 93% 30.06 in
(1018 mb)
NW 3.5 mph
(NW 6 kph)
- 10SM
03:15
Clear
41°F / 5°C 37°F / 3°C 87% 30.06 in
(1018 mb)
NW 3.5 mph
(NW 6 kph)
- 10SM
02:55
Clear
41°F / 5°C 37°F / 3°C 87% 30.06 in
(1018 mb)
W 3.5 mph
(W 6 kph)
- 10SM
02:35
Clear
41°F / 5°C 37°F / 3°C 87% 30.06 in
(1018 mb)
W 3.5 mph
(W 6 kph)
- 10SM
02:15
Clear
41°F / 5°C 37°F / 3°C 87% 30.06 in
(1018 mb)
SSW 3.5 mph
(SSW 6 kph)
- 10SM
01:55
Clear
41°F / 5°C 37°F / 3°C 87% 30.06 in
(1018 mb)
SSW 3.5 mph
(SSW 6 kph)
- 10SM
01:35
Clear
41°F / 5°C 39°F / 4°C 93% 30.06 in
(1018 mb)
SSW 3.5 mph
(SSW 6 kph)
- 10SM
01:15
Clear
41°F / 5°C 39°F / 4°C 93% 30.06 in
(1018 mb)
SSW 3.5 mph
(SSW 6 kph)
- 10SM
00:55
Clear
41°F / 5°C 39°F / 4°C 93% 30.06 in
(1018 mb)
Calm - 10SM
00:35
Clear
41°F / 5°C 39°F / 4°C 93% 30.06 in
(1018 mb)
SSW 3.5 mph
(SSW 6 kph)
- 10SM
00:15
Clear
41°F / 5°C 39°F / 4°C 93% 30.06 in
(1018 mb)
W 4.6 mph
(W 7 kph)
- 10SM
Time Weather Temperature Dewpoint Humidity Pressure Winds Precip Visibility


Weather for websites

WeatherForYou.com, LLC is not responsible for any damages or problems caused by this service. Current weather conditions are obtained from the closest station including government and personal stations which may have varying degrees of accuracy. Weather forecasts are derived from the NOAA NDFD. Like all things, this site belongs to Jesus Christ... He just trusts me to maintain it. If you have any questions or comments email webmaster@weatherforyou.com

Copyright © 2014, WeatherForYou.com LLC. All rights reserved.